Showing default

YUNYAO-1 47, 63348

Orbit data source: Space-Track

YUNYAO-1 47, 63348 is a payload satellite owned by Yunyao yuhang (CN) in SSO that was launched on Fri, 21 Mar 2025 UTC via a GUSHENXING 1 launch vehicle from the Jiuquan Satellite Launch Center, China (JSC). Payload-class satellites include a variety of spacecraft equipped with specific instruments for various scientific and technological missions. These include communications satellites like Starlink; space stations such as the ISS; scientific satellites like the Hubble; Earth observation satellites from companies like Planet Labs, Umbra, and HawkEye 360; GPS; miniature CubeSats for education and research; and military/defense satellites.

Loading next visibility...
Identifier
63348, 2025-059E
Orbit
SSO
Last TLE update
7 hours ago
Origin
Manufacturer
Changguang WJ
Mission
Operational spacecraft
Bus & Motor
YY-1, Unknown motor
Mass
~50 kg wet, ~50 kg dry
Launch date (UTC)
2025-03-21 (2 months ago)
Launch vehicle
GUSHENXING 1
Launch site
Jiuquan Satellite Launch Center, China (JSC)
Object type
Payload
Rocket body
Debris
Shape & HBR
Unknown
Radar Cross Section
Medium (>0.1 m² and <1 m²)

Expand to show TLE details & history

TLE from 7 hours ago
0 YUNYAO-1 47
1 63348U 25059E   25128.95389732  .00004812  00000-0  29837-3 0  9996
2 63348  97.5977 308.7341 0014781 121.2847 238.9832 15.10126089  7311
Epoch: 2025-05-08T22:53Z
Definitive object data (Epoch: 2025-05-08T22:53:36.728Z)
Latitude
-0.00001°
Longitude
98.31408°
Altitude
544.165 km
Speed
7.587 km/s
True Right ascension
20h 34m 56s
True Declination
0° 00' 00"
Sunlit
Object was in daylight at TLE epoch
Visualization TLE readout
Latitude
-63.54442°
Longitude
-96.84°
Altitude
565.869 km
Speed
7.574 km/s
Apparent Right ascension
04h 21m 26s
Apparent Declination
-58° 07' 06"
Sunlit
Object is in daylight
Visualization observer readout
Local Sidereal Time
14:28:45
Azimuth
215.273° SW
Elevation
-64.419°
Doppler factor
1
Orbital elements
Apogee altitude
543.017 km
Perigee altitude
522.587 km
Semi-major axis
6,910.939 km
Eccentricity
0.0014781
Inclination
97.5977°
RAAN
308.7341°
Arg. of periapsis
121.2847°
True anomaly
238.83818°
Mean anomaly
238.9832°
Eccentric anomaly
238.91068°
Mean motion
3.77779 °/min
BSTAR
0.00029837
Orbital period
95.29 mins
Loading maneuver chart data...
Loading SW <> Apogee altitude chart data...
Loading historical data...
Loading historical data...
Loading historical data...
Loading historical data...
Loading historical data...
Loading historical data...
Loading historical data...
Other satellites on launch #59 in the year 2025 (2025-03-21 UTC)

YUNYAO-1 47 Visibility forecast

Observer location: undefined°, undefined°

Span
Click to sort rows by Start time (UTC) header in descending order
Start Az.
Max El. time (UTC)
Max El. Az.
Max El.
End time (UTC)
End Az.
6 mins2025-05-09 11:44:56.443Z151.055° SSE2025-05-09 11:47:56.443Z61.792° ENE40.354°2025-05-09 11:50:56.443Z357.698° N
5 mins2025-05-10 00:54:56.443Z7.7° NNE2025-05-10 00:56:56.443Z328.418° NNW44.076°2025-05-10 00:59:56.443Z198.056° SSW
|